Regional Weather Roundup
Issued by NWS

Home | Current Version | Previous Version | Graphics & Text | Print | Product List | Glossary On
Versions: 1 2 3 4 5 6 7 8 9 10 11 12 13 14 15 16 17 18 19 20 21 22 23 24 25 26 27 28 29 30 31 32 33 34 35 36 37 38 39 40 41 42 43 44 45 46 47 48 49 50
000
ASUS43 KIND 231209
RWRIN

WEATHER ROUNDUP FOR INDIANA
NATIONAL WEATHER SERVICE INDIANAPOLIS IN
800 AM EDT TUE SEP 23 2014

NOTE: "FAIR" INDICATES FEW OR NO CLOUDS BELOW 12,000 FEET WITH NO
SIGNIFICANT WEATHER AND/OR OBSTRUCTIONS TO VISIBILITY.

* - STATION DOES NOT REPORT WEATHER SUCH AS PRECIPITATION OR FOG.

+ - STATION NOT QUALITY CONTROLLED BY THE NATIONAL WEATHER SERVICE.
    USE DATA WITH CAUTION...ESPECIALLY DEWPOINT AND RELATIVE
    HUMIDITY OBSERVATIONS.

INZ001>003-010>013-019-020-231300-
NORTHWEST INDIANA

CITY           SKY/WX    TMP DP  RH WIND       PRES   REMARKS
GARY /AIRPORT/ CLEAR     45  43  93 S3        30.33R
KNOX *+        CLEAR     41  39  95 CALM      30.34R
LA PORTE +     CLEAR     40  40 100 CALM      30.34R
6HR MIN TEMP:  40; 6HR MAX TEMP:  43;

MICHIGAN CITY+ CLEAR     43  43 100 CALM      30.33R
MONTICELLO +   CLEAR     42  42 100 CALM      30.33R
RENSSELAER +   CLEAR     41  41 100 CALM      30.34R
VALPARAISO     CLEAR     43  42  97 CALM      30.34R
6HR MIN TEMP:  42; 6HR MAX TEMP:  48;


$$

LMZ046-743>745-231300-
SOUTHERN LAKE MICHIGAN

STATION/POSITION TIME  TEMP WIND        PRES
                       AIR  DIR/SP/G
                 (UTC) (F)  (DEG/KT/KT) (MB)

$$

INZ004-005-014>016-021>024-231300-
NORTH CENTRAL INDIANA

CITY           SKY/WX    TMP DP  RH WIND       PRES   REMARKS
ELKHART        PTCLDY    41  41 100 CALM      30.34R
GOSHEN         CLEAR    N/A N/A N/A CALM      30.34R
LOGANSPORT +   CLEAR     41  39  93 CALM      30.34R FOG
PERU/GRISSOM   CLEAR     45  45 100 CALM      30.33S
ROCHESTER +    CLEAR     45  45 100 CALM      30.34R
SOUTH BEND     CLEAR     44  40  85 CALM      30.34R
6HR MIN TEMP:  44; 6HR MAX TEMP:  48;

WARSAW +       CLEAR     41  41 100 CALM      30.34R FOG

$$

INZ006>009-017-018-025>027-231300-
NORTHEAST INDIANA

CITY           SKY/WX    TMP DP  RH WIND       PRES   REMARKS
ANGOLA *+      PTCLDY    39  39 100 CALM      30.34R
AUBURN +       CLEAR     41  39  93 CALM      30.35R
FORT WAYNE     CLEAR     43  42  97 CALM      30.35R
6HR MIN TEMP:  41; 6HR MAX TEMP:  46;

HUNTINGTON +   FOG       42  42 100 CALM      30.34R VSB 1/4
6HR MIN TEMP:  41; 6HR MAX TEMP:  45;


$$

INZ028-029-035-036-043>045-051>053-231300-
WEST CENTRAL INDIANA

CITY           SKY/WX    TMP DP  RH WIND       PRES   REMARKS
GREENCASTLE +  CLEAR     43  43 100 CALM      30.34R FOG
LAFAYETTE      CLEAR     43  43 100 CALM      30.34R
6HR MIN TEMP:  42; 6HR MAX TEMP:  47;

TERRE HAUTE    PTCLDY    41  39  93 CALM      30.33R
6HR MIN TEMP:  39; 6HR MAX TEMP:  45;


$$

INZ030>032-037>040-046>048-054>057-064-065-231300-
CENTRAL INDIANA

CITY           SKY/WX    TMP DP  RH WIND       PRES   REMARKS
CP ATTERBURY + CLEAR     39  37  93 CALM      30.34R
FRANKFORT +    CLEAR    N/A N/A N/A CALM      30.34R
GREENWOOD *+   CLEAR     45  43  93 CALM      30.34
INDIANAPOLIS   CLEAR     48  44  86 CALM      30.33R
6HR MIN TEMP:  47; 6HR MAX TEMP:  51;

-EAGLE CREEK   CLEAR     47  43  86 CALM      30.33R
6HR MIN TEMP:  47; 6HR MAX TEMP:  51;

KOKOMO *+      CLEAR     43  39  87 CALM      30.34R
MARION +       CLEAR     40  40  99 CALM      30.34S
MT COMFORT *+  CLEAR     41 N/A N/A CALM      30.33R
SHELBYVILLE    CLEAR     43  39  86 CALM      30.32R
6HR MIN TEMP:  42; 6HR MAX TEMP:  47;

ZIONSVILLE +   CLEAR     42  39  91 CALM      30.34R
6HR MIN TEMP:  41; 6HR MAX TEMP:  48;


$$

INZ033-034-041-042-049-050-058-059-231300-
EAST CENTRAL INDIANA

CITY           SKY/WX    TMP DP  RH WIND       PRES   REMARKS
MUNCIE         CLEAR     42  40  92 CALM      30.33S FOG
6HR MIN TEMP:  41; 6HR MAX TEMP:  46;


$$

INZ060-061-067>069-081>083-085>088-231300-
SOUTHWEST INDIANA

CITY           SKY/WX    TMP DP  RH WIND       PRES   REMARKS
EVANSVILLE     CLEAR     46  44  93 N3        30.31R
6HR MIN TEMP:  46; 6HR MAX TEMP:  50;

WASHINGTON +     N/A     40  40 100 CALM      30.32S FOG
6HR MIN TEMP:  40; 6HR MAX TEMP:  46;


$$

INZ062-063-066-070>080-084-089>092-231300-
SOUTH CENTRAL AND SOUTHEAST INDIANA

CITY           SKY/WX    TMP DP  RH WIND       PRES   REMARKS
BLOOMINGTON    CLEAR     41  40  96 CALM      30.33R FOG
6HR MIN TEMP:  40; 6HR MAX TEMP:  45;


$$



USA.gov is the U.S. government's official web portal to all federal, state and local government web resources and services.